Flag for Switzerland Weather past 2 weeks in Yverdon-les-Bains, Vaud, Switzerland

Now
59 °F

Refreshingly cool.


Feels Like: 59 °F
Forecast: 31 / 54 °F
Wind: 5 mph from North

Location: Payerne


UV Index: 3 (Moderate)

Visibility: N/A


Pressure: 30.01 "Hg

Humidity: 33%

Dew point: 29 °F

Location of Yverdon-les-BainsLocation

Historic Weather in Yverdon-les-Bains

°F

Yverdon-les-Bains temperature yesterday

Maximum temperature yesterday: 61 °F (at 5:00 PM)
Minimum temperature yesterday: 30 °F (at 7:00 AM)
Average temperature yesterday: 44 °F

Past Weeks' High & Low Weather Summary

 TemperatureHumidityPressure
High70 °F (Apr 7, 5:00 PM)97% (Apr 7, 4:00 AM)30.34 "Hg (Apr 7, 4:00 AM)
Low30 °F (Apr 17, 7:00 AM)21% (Apr 9, 6:00 PM)29.64 "Hg (Apr 3, 6:00 PM)
Average52 °F65%30.05 "Hg
* Reported Apr 2 6:00 PM — Apr 17 6:00 PM, Yverdon-les-Bains, Weather by CustomWeather, © 2014

Note: Actual official high and low records may vary slightly from our data, if they occured in-between our weather recording intervals... More about our weather records

Advertising

Historic Weather Conditions — Data for Previous 24 hours

 ConditionsComfort  
Time TempWeatherWind HumidityBarometerVisibility
6:00 PM
Apr 17
59 °FRefreshingly cool.5 mph33%30.01 "HgN/A
5:00 PM61 °FRefreshingly cool.5 mph28%30.01 "HgN/A
4:00 PM60 °FRefreshingly cool.6 mph29%30.03 "HgN/A
3:00 PM57 °FRefreshingly cool.7 mph29%30.07 "HgN/A
2:00 PM54 °FPassing clouds.8 mph37%30.11 "Hg17 mi
1:00 PM52 °FCool.5 mph44%30.14 "HgN/A
12:00 PM49 °FCool.5 mph53%30.18 "HgN/A
11:00 AM46 °FPassing clouds.1 mph55%30.20 "Hg16 mi
10:00 AM43 °FQuite cool.2 mph61%30.23 "HgN/A
9:00 AM38 °FChilly.2 mph69%30.24 "HgN/A
8:00 AM34 °FPassing clouds.2 mph83%30.27 "Hg16 mi
7:00 AM30 °FChilly.2 mph88%30.27 "HgN/A
6:00 AM30 °FChilly.2 mph87%30.27 "HgN/A
5:00 AM32 °FChilly.2 mph81%30.28 "HgN/A
4:00 AM35 °FChilly.2 mph73%30.27 "HgN/A
3:00 AM37 °FChilly.5 mph66%30.26 "HgN/A
2:00 AM38 °FClear.7 mph64%30.27 "Hg16 mi
1:00 AM41 °FQuite cool.7 mph56%30.27 "HgN/A
12:00 AM42 °FQuite cool.5 mph56%30.27 "HgN/A
Weather by CustomWeather, © 2014

See weather overview